STARLINK-11565, 62912

Orbit data source: Space-Track

STARLINK-11565, 62912 is a payload satellite owned by SpaceX/Seattle (US) in LEO that was launched on Sat, 08 Feb 2025 UTC via an FALCON 9 launch vehicle from the Air Force Eastern Test Range (AFETR). Payload-class satellites include a variety of spacecraft equipped with specific instruments for various scientific and technological missions. These include communications satellites like Starlink; space stations such as the ISS; scientific satellites like the Hubble; Earth observation satellites from companies like Planet Labs, Umbra, and HawkEye 360; GPS; miniature CubeSats for education and research; and military/defense satellites.

Loading next visibility...
Identifier
62912, 2025-027F
Orbit
LEO
Country
Flag of USUS
Related business
Manufacturer
SpaceX/Seattle
Mission
Operational Commercial Communications
Bus & Motor
STARLINK V2MD, Unknown motor
Mass
960 kg wet, ~910 kg dry
Launch date (UTC)
2025-02-08 (9 months ago)
Launch vehicle
FALCON 9
Launch site
Air Force Eastern Test Range (AFETR)
Object type
Payload
Rocket body
Debris
Shape & HBR
Box + 2 Pan, 18.1 m
Radar Cross Section
36.964 m², Large (>1 m²)

Expand to show TLE details & history
Last TLE update: 5 hours ago

TLE from 5 hours ago
0 STARLINK-11565
1 62912U 25027F   25298.42871308  .00255652  00000-0  19339-2 0  9997
2 62912  42.9999  82.5652 0002290 270.6705  89.3900 15.70855173 41884
Epoch: 2025-10-25T10:17Z
TLE epoch observation values (Epoch: 2025-10-25T10:17:20.810Z)
Latitude
-0.00002°
Longitude
-105.83093°
Altitude
356.207 km
Speed
7.697 km/s
True Right ascension
05h 30m 15s
True Declination
0° 00' 00"
Sunlit
Object was in full shadow at epoch
Visualization orbit readout
Latitude
Unknown
Longitude
Unknown
Altitude
Unknown
Speed
Unknown
Apparent Right ascension
Unknown
Apparent Declination
Unknown
Sunlit
N/A
Visualization observer readout
Local Sidereal Time
10:45:05
Azimuth
Unknown
Elevation
Unknown
Doppler factor
Unknown
Orbital elements
Apogee altitude
359.976 km
Perigee altitude
356.891 km
Semi-major axis
6,736.57 km
Eccentricity
0.00023
Inclination
42.9999°
RAAN
82.5652°
Arg. of periapsis
270.6705°
True anomaly
89.41624°
Mean anomaly
89.39°
Eccentric anomaly
89.40312°
Mean motion
3.92541 °/min
Orbital period
91.71 mins
BSTAR
0.0019339
Loading maneuver chart data...
Computing Atmospheric mass density...
Loading historical data...
Loading historical data...
Loading historical data...
Loading historical data...
Loading historical data...
Loading historical data...
Loading historical data...

Documentation

Showing up to 5 results
|